Orbital Elements at Epoch 2459000.5 (2020-May-31.0) TDB
Reference: JPL 3 (heliocentric ecliptic J2000)
Element | Value | Uncertainty (1-sigma) | Units |
e | .4877226915779328 | 0.00016631 | |
a | 1.944810431546887 | 0.00061428 | au |
q | .996282253263998 | 9.0856e-06 | au |
i | 5.472699459472355 | 0.0037931 | deg |
node | 143.5002432331467 | 9.3251e-05 | deg |
peri | 162.0117313590604 | 0.0030785 | deg |
M | 337.4105363433001 | 0.011229 | deg |
tp | 2459062.660966530206 (2020-Aug-01.16096653) | 0.0018099 | TDB |
period | 990.6365326313069 2.71 | 0.46934 0.001285 | d yr |
n | .3634027094112671 | 0.00017217 | deg/d |
Q | 2.893338609829776 | 0.00091387 | au |
|
| | Orbit Determination Parameters
Additional Information
|